Find OneWeb SL0538

NORAD ID: 56047 Int'l Des: 2023-043 Owner: ONEWEBN Country: UK Constellation: oneweb operational
LEOCIRCULARPOLARONEWEB_TYPE

当前视图

正在加载3D地球...

About OneWeb SL0538

OneWeb SL0538 (NORAD 56047) is a oneweb constellation satellite launched Mar 26, 2023 by ONEWEBN of UK. It operates in LEO, CIRCULAR, POLAR, ONEWEB_TYPE orbit with a mass of 148.00 kg.

关于 OneWeb SL0538

正在加载描述...

即将过境

Passes for default location (London). Set your location on the main map for personalized predictions.

高度历史

Loading altitude history...

两行轨道根数

1 56047U 23043B 26170.08819021 .00000061 00000-0 12652-3 0 9995
2 56047 87.9097 228.3966 0002155 104.1735 255.9636 13.16594808159224
Epoch: Jun 19, 2026 • Age: 8 hours

当前状态

高度 1215.6 km
速度 7.25 km/s
星下点 -44.19°S, 15.51°W
发射日期 Mar 26, 2023
运行时间 3.2 years
类型 internet

技术详情

分类 Payload
质量 148.00 kg
干质量 140.00 kg
总质量 148.00 kg
长度 1.30 m
直径 1.00 m
跨度 5.00 m
形状 Trapezoid+2 pan
制造商 ONEWUS
平台类型 ARROW
阶段状态 In Orbit
所有者/国家 ONEWEBN/UK

Most Searched